STARLINK-31786, 59771

Orbit data source: Space-Track

STARLINK-31786, 59771 is a payload satellite owned by SpaceX/Seattle (US) in LEO that was launched on Tue, 14 May 2024 UTC via an FALCON 9 launch vehicle from the Air Force Western Test Range (AFWTR). Payload-class satellites include a variety of spacecraft equipped with specific instruments for various scientific and technological missions. These include communications satellites like Starlink; space stations such as the ISS; scientific satellites like the Hubble; Earth observation satellites from companies like Planet Labs, Umbra, and HawkEye 360; GPS; miniature CubeSats for education and research; and military/defense satellites.

Loading next visibility...
Identifier
59771, 2024-091U
Orbit
LEO
Country
Flag of USUS
Related business
Manufacturer
SpaceX/Seattle
Mission
Operational Commercial Communications
Bus & Motor
STARLINK V2M, Unknown motor
Mass
730 kg wet, ~700 kg dry
Launch date (UTC)
2024-05-14 (2 years ago)
Launch vehicle
FALCON 9
Launch site
Air Force Western Test Range (AFWTR)
Object type
Payload
Rocket body
Debris
Shape & HBR
Box + 2 Pan, 17.7 m
Radar Cross Section
33.884 m², Large (>1 m²)

Expand to show TLE details & history
Last TLE update: 3 days ago

TLE from 3 days ago
0 STARLINK-31786
1 59771U 24091U   26170.66668981  .00030603  00000-0  10418-2 0  9999
2 59771  53.1581 273.3996 0001100  91.5249 315.8730 15.30179274  5882
Epoch: 2026-06-19T16:00Z
TLE epoch observation values (Epoch: 2026-06-19T16:00:01.999Z)
Latitude
36.2027°
Longitude
158.54953°
Altitude
477.548 km
Speed
7.632 km/s
True Right ascension
20h 25m 48s
True Declination
36° 01' 56"
Sunlit
Object was in daylight at epoch
Visualization orbit readout
Latitude
Unknown
Longitude
Unknown
Altitude
Unknown
Speed
Unknown
Apparent Right ascension
Unknown
Apparent Declination
Unknown
Sunlit
N/A
Visualization observer readout
Local Sidereal Time
21:29:28
Azimuth
Unknown
Elevation
Unknown
Doppler factor
Unknown
Orbital elements
Apogee altitude
476.288 km
Perigee altitude
474.78 km
Semi-major axis
6,853.671 km
Eccentricity
0.00011
Inclination
53.1581°
RAAN
273.3996°
Arg. of periapsis
91.5249°
True anomaly
315.86422°
Mean anomaly
315.873°
Eccentric anomaly
315.86861°
Mean motion
3.82524 °/min
Orbital period
94.11 mins
BSTAR
0.0010418
Loading maneuver chart data...
Computing Atmospheric mass density...
Loading historical data...
Loading historical data...
Loading historical data...
Loading historical data...
Loading historical data...
Loading historical data...
Loading historical data...

Documentation

Showing up to 5 results
|